Mojave, CA

7:20 PM PST on February 21, 2018 (GMT -0800)
Mojave

Weather History for KMHV - June, 2013

Change the Weather History Date:

Tuesday, June 25, 2013

  Actual Average Record
Temperature  
Mean Temperature 76 °F -  
Max Temperature 89 °F 93 °F 103 °F (1977)
Min Temperature 64 °F 64 °F 52 °F (1975)
Cooling Degree Days 12    
Growing Degree Days 26 (Base 50)    
Moisture  
Dew Point 50 °F    
Average Humidity 40    
Maximum Humidity 59    
Minimum Humidity 24    
Precipitation  
Precipitation 0.00 in - - ()
Sea Level Pressure  
Sea Level Pressure 29.95 in    
Wind  
Wind Speed 21 mph (West)    
Max Wind Speed 31 mph    
Max Gust Speed 43 mph    
Visibility 10 miles    
Events      
Averages and records for this station are not official NWS values.
T = Trace of Precipitation, MM = Missing Value Source: NWS Daily Summary

Daily Weather History Graph

Daily Weather History Graph

Search for Another Location

Airport or City:

Trip Planner

Search our weather history database for the weather conditions in past years. The results will help you decide how hot, cold, wet, or windy it might be!

Date:

Astronomy

Jun. 25, 2013 Rise Set
Actual Time 5:40 AM PDT 8:10 PM PDT
Civil Twilight 5:10 AM PDT 8:40 PM PDT
Nautical Twilight 4:33 AM PDT 9:17 PM PDT
Astronomical Twilight 3:52 AM PDT 9:57 PM PDT
Moon 10:07 PM PDT (6/25) 8:19 AM PDT (6/25)
Length of Visible Light 15h 30m
Length of Day
14h 30m
Waning Gibbous, 92% of the Moon is Illuminated
Jun 25
Waning Gibbous
Jun 29
Last Quarter
Jul 8
New
Jul 15
First Quarter
Jul 22
Full

Hourly Weather History & Observations

Time (PDT) Temp. Dew Point Humidity Pressure Visibility Wind Dir Wind Speed Gust Speed Precip Events Conditions
12:15 AM 69.8 °F 46.4 °F 43% 29.89 in 10.0 mi West 27.6 mph 36.8 mph N/A   Clear
12:35 AM 68.0 °F 48.2 °F 49% 29.90 in 10.0 mi WSW 21.9 mph 32.2 mph N/A   Clear
12:55 AM 66.2 °F 50.0 °F 56% 29.89 in 10.0 mi WSW 27.6 mph 31.1 mph N/A   Clear
1:15 AM 68.0 °F 48.2 °F 49% 29.91 in 10.0 mi WSW 23.0 mph 31.1 mph N/A   Clear
1:35 AM 66.2 °F 50.0 °F 56% 29.91 in 10.0 mi WSW 19.6 mph 26.5 mph N/A   Clear
1:55 AM 66.2 °F 50.0 °F 56% 29.89 in 10.0 mi WSW 31.1 mph 38.0 mph N/A   Clear
2:15 AM 64.4 °F 50.0 °F 59% 29.91 in 10.0 mi WSW 25.3 mph 29.9 mph N/A   Clear
2:35 AM 66.2 °F 50.0 °F 56% 29.91 in 10.0 mi West 18.4 mph 23.0 mph N/A   Clear
2:55 AM 66.2 °F 50.0 °F 56% 29.90 in 10.0 mi WSW 19.6 mph 27.6 mph N/A   Clear
3:15 AM 66.2 °F 48.2 °F 52% 29.90 in 10.0 mi West 23.0 mph 28.8 mph N/A   Clear
3:35 AM 66.2 °F 50.0 °F 56% 29.90 in 10.0 mi West 23.0 mph 26.5 mph N/A   Clear
3:55 AM 66.2 °F 50.0 °F 56% 29.89 in 10.0 mi West 27.6 mph 36.8 mph N/A   Clear
4:15 AM 66.2 °F 48.2 °F 52% 29.91 in 10.0 mi WNW 10.4 mph - N/A   Clear
4:35 AM 66.2 °F 48.2 °F 52% 29.91 in 10.0 mi West 13.8 mph 19.6 mph N/A   Clear
4:55 AM 66.2 °F 48.2 °F 52% 29.91 in 10.0 mi West 12.7 mph - N/A   Clear
5:15 AM 68.0 °F 48.2 °F 49% 29.91 in 10.0 mi West 11.5 mph 23.0 mph N/A   Clear
5:35 AM 66.2 °F 48.2 °F 52% 29.91 in 10.0 mi Calm Calm - N/A   Clear
5:55 AM 66.2 °F 48.2 °F 52% 29.92 in 10.0 mi Calm Calm - N/A   Clear
6:15 AM 68.0 °F 48.2 °F 49% 29.92 in 10.0 mi Calm Calm - N/A   Clear
6:35 AM 68.0 °F 50.0 °F 52% 29.93 in 10.0 mi West 21.9 mph 25.3 mph N/A   Clear
6:55 AM 68.0 °F 51.8 °F 56% 29.93 in 10.0 mi West 21.9 mph 27.6 mph N/A   Clear
7:15 AM 68.0 °F 51.8 °F 56% 29.94 in 10.0 mi West 15.0 mph - N/A   Clear
7:35 AM 69.8 °F 51.8 °F 53% 29.95 in 10.0 mi West 25.3 mph - N/A   Clear
7:55 AM 71.6 °F 53.6 °F 53% 29.96 in 10.0 mi West 23.0 mph - N/A   Clear
8:15 AM 71.6 °F 53.6 °F 53% 29.96 in 10.0 mi West 18.4 mph 24.2 mph N/A   Clear
8:35 AM 73.4 °F 53.6 °F 50% 29.96 in 10.0 mi West 23.0 mph 29.9 mph N/A   Clear
8:55 AM 75.2 °F 51.8 °F 44% 29.95 in 10.0 mi West 26.5 mph 34.5 mph N/A   Clear
9:15 AM 75.2 °F 51.8 °F 44% 29.96 in 10.0 mi West 26.5 mph 38.0 mph N/A   Clear
9:35 AM 77.0 °F 51.8 °F 41% 29.97 in 10.0 mi West 25.3 mph 33.4 mph N/A   Clear
9:55 AM 77.0 °F 50.0 °F 39% 29.97 in 10.0 mi West 21.9 mph - N/A   Clear
10:15 AM 80.6 °F 50.0 °F 34% 29.97 in 10.0 mi West 18.4 mph 27.6 mph N/A   Clear
10:35 AM 80.6 °F 50.0 °F 34% 29.97 in 10.0 mi West 20.7 mph - N/A   Clear
10:55 AM 82.4 °F 48.2 °F 30% 29.97 in 10.0 mi West 19.6 mph 29.9 mph N/A   Clear
11:15 AM 84.2 °F 48.2 °F 29% 29.97 in 10.0 mi West 23.0 mph 35.7 mph N/A   Clear
11:35 AM 84.2 °F 48.2 °F 29% 29.98 in 10.0 mi West 21.9 mph 32.2 mph N/A   Clear
11:55 AM 84.2 °F 48.2 °F 29% 29.98 in 10.0 mi West 27.6 mph 34.5 mph N/A   Clear
12:15 PM 86.0 °F 48.2 °F 27% 29.98 in 10.0 mi West 23.0 mph 29.9 mph N/A   Clear
12:35 PM 86.0 °F 48.2 °F 27% 29.99 in 10.0 mi West 19.6 mph 33.4 mph N/A   Clear
12:55 PM 86.0 °F 48.2 °F 27% 29.98 in 10.0 mi West 25.3 mph 31.1 mph N/A   Clear
1:15 PM 86.0 °F 48.2 °F 27% 29.98 in 10.0 mi West 24.2 mph 32.2 mph N/A   Clear
1:35 PM 87.8 °F 48.2 °F 25% 29.98 in 10.0 mi West 23.0 mph 33.4 mph N/A   Clear
1:55 PM 87.8 °F 48.2 °F 25% 29.97 in 10.0 mi WNW 28.8 mph 34.5 mph N/A   Clear
2:15 PM 87.8 °F 48.2 °F 25% 29.96 in 10.0 mi WNW 24.2 mph 33.4 mph N/A   Clear
2:35 PM 87.8 °F 48.2 °F 25% 29.96 in 10.0 mi West 26.5 mph 35.7 mph N/A   Clear
2:55 PM 87.8 °F 48.2 °F 25% 29.96 in 10.0 mi WNW 24.2 mph 29.9 mph N/A   Clear
3:15 PM 87.8 °F 48.2 °F 25% 29.96 in 10.0 mi West 18.4 mph 36.8 mph N/A   Clear
3:35 PM 89.6 °F 48.2 °F 24% 29.96 in 10.0 mi West 17.3 mph 29.9 mph N/A   Clear
3:55 PM 87.8 °F 48.2 °F 25% 29.95 in 10.0 mi West 18.4 mph 34.5 mph N/A   Clear
4:15 PM 86.0 °F 48.2 °F 27% 29.94 in 10.0 mi West 19.6 mph 34.5 mph N/A   Clear
4:35 PM 87.8 °F 50.0 °F 27% 29.94 in 10.0 mi WSW 20.7 mph 29.9 mph N/A   Clear
4:55 PM 86.0 °F 50.0 °F 29% 29.94 in 10.0 mi WSW 11.5 mph 25.3 mph N/A   Clear
5:15 PM 86.0 °F 50.0 °F 29% 29.94 in 10.0 mi West 15.0 mph 23.0 mph N/A   Clear
5:35 PM 86.0 °F 50.0 °F 29% 29.94 in 10.0 mi WSW 12.7 mph 26.5 mph N/A   Clear
5:55 PM 84.2 °F 50.0 °F 30% 29.94 in 10.0 mi WSW 21.9 mph 31.1 mph N/A   Clear
6:15 PM 84.2 °F 50.0 °F 30% 29.94 in 10.0 mi West 6.9 mph 20.7 mph N/A   Clear
6:35 PM 82.4 °F 50.0 °F 32% 29.94 in 10.0 mi West 10.4 mph 21.9 mph N/A   Clear
6:55 PM 82.4 °F 50.0 °F 32% 29.94 in 10.0 mi South 3.5 mph - N/A   Clear
7:15 PM 82.4 °F 51.8 °F 35% 29.94 in 10.0 mi SW 9.2 mph 19.6 mph N/A   Clear
7:35 PM 80.6 °F 50.0 °F 34% 29.95 in 10.0 mi WSW 12.7 mph 18.4 mph N/A   Clear
7:55 PM 80.6 °F 50.0 °F 34% 29.96 in 10.0 mi SSW 10.4 mph - N/A   Clear
8:15 PM 78.8 °F 50.0 °F 36% 29.96 in 10.0 mi WSW 10.4 mph - N/A   Clear
8:35 PM 78.8 °F 50.0 °F 36% 29.96 in 10.0 mi West 13.8 mph 23.0 mph N/A   Clear
8:55 PM 77.0 °F 50.0 °F 39% 29.95 in 10.0 mi West 25.3 mph 38.0 mph N/A   Clear
9:15 PM 77.0 °F 51.8 °F 41% 29.97 in 10.0 mi West 19.6 mph 33.4 mph N/A   Clear
9:35 PM 77.0 °F 53.6 °F 44% 29.98 in 10.0 mi West 23.0 mph 33.4 mph N/A   Clear
9:55 PM 75.2 °F 53.6 °F 47% 29.98 in 10.0 mi West 21.9 mph 29.9 mph N/A   Clear
10:15 PM 75.2 °F 53.6 °F 47% 29.99 in 10.0 mi West 21.9 mph 27.6 mph N/A   Clear
10:35 PM 75.2 °F 53.6 °F 47% 29.98 in 10.0 mi West 26.5 mph 33.4 mph N/A   Clear
10:55 PM 75.2 °F 51.8 °F 44% 29.98 in 10.0 mi West 19.6 mph 27.6 mph N/A   Clear
11:15 PM 75.2 °F 51.8 °F 44% 29.98 in 10.0 mi West 18.4 mph 29.9 mph N/A   Clear
11:35 PM 75.2 °F 51.8 °F 44% 29.97 in 10.0 mi West 26.5 mph 34.5 mph N/A   Clear
11:55 PM 75.2 °F 51.8 °F 44% 29.96 in 10.0 mi West 27.6 mph 42.6 mph N/A   Clear